| time (UTC) | temp F | wind direction | speed MPH | gust MPH | rain 1hr in | rain 24hr in | rain mn in | humidity % | barometer mb |
| 20260508135128 | 61 | 37 | 0.0 | 8.0 | 0.00 | 0.00 | 0.00 | 89 | 1014.1 |
| 20260508134645 | 61 | 34 | 3.0 | 8.0 | 0.00 | 0.00 | 0.00 | 88 | 1014.1 |
| 20260508134156 | 61 | 20 | 2.0 | 9.0 | 0.00 | 0.00 | 0.00 | 88 | 1014.2 |
| 20260508133240 | 61 | 22 | 2.0 | 11.0 | 0.00 | 0.00 | 0.00 | 88 | 1014.1 |
| 20260508132741 | 61 | 23 | 7.0 | 11.0 | 0.00 | 0.00 | 0.00 | 88 | 1014.0 |
| 20260508132243 | 61 | 16 | 4.0 | 8.0 | 0.00 | 0.00 | 0.00 | 88 | 1014.1 |
| 20260508131630 | 61 | 36 | 4.0 | 9.0 | 0.00 | 0.00 | 0.00 | 88 | 1014.0 |
| 20260508131156 | 61 | 43 | 5.0 | 9.0 | 0.00 | 0.00 | 0.00 | 88 | 1014.0 |
| 20260508130648 | 61 | 41 | 2.0 | 7.0 | 0.00 | 0.00 | 0.00 | 87 | 1014.1 |
| 20260508125631 | 61 | 27 | 5.0 | 8.0 | 0.00 | 0.00 | 0.00 | 87 | 1014.3 |
| 20260508125146 | 61 | 13 | 3.0 | 8.0 | 0.00 | 0.00 | 0.00 | 87 | 1014.3 |
| 20260508124658 | 61 | 5 | 3.0 | 8.0 | 0.00 | 0.00 | 0.00 | 86 | 1014.3 |
| 20260508124213 | 61 | 11 | 3.0 | 7.0 | 0.00 | 0.00 | 0.00 | 86 | 1014.2 |
| 20260508123727 | 61 | 24 | 5.0 | 7.0 | 0.00 | 0.00 | 0.00 | 86 | 1014.2 |
| 20260508123204 | 61 | 5 | 1.0 | 5.0 | 0.00 | 0.00 | 0.00 | 85 | 1014.3 |
| 20260508122659 | 61 | 5 | 1.0 | 4.0 | 0.00 | 0.00 | 0.00 | 85 | 1014.3 |
| 20260508121646 | 62 | 5 | 0.0 | 5.0 | 0.00 | 0.00 | 0.00 | 85 | 1014.5 |
| 20260508121155 | 61 | 5 | 1.0 | 5.0 | 0.00 | 0.00 | 0.00 | 85 | 1014.4 |
| 20260508120220 | 62 | 18 | 1.0 | 8.0 | 0.00 | 0.00 | 0.00 | 84 | 1014.3 |
| 20260508115643 | 62 | 5 | 3.0 | 8.0 | 0.00 | 0.00 | 0.00 | 83 | 1014.2 |
| 20260508115154 | 62 | 19 | 2.0 | 9.0 | 0.00 | 0.00 | 0.00 | 83 | 1014.1 |
| 20260508114218 | 62 | 29 | 5.0 | 11.0 | 0.00 | 0.00 | 0.00 | 82 | 1013.6 |
| 20260508113700 | 62 | 19 | 6.0 | 10.0 | 0.00 | 0.00 | 0.00 | 82 | 1013.9 |
| 20260508113213 | 62 | 342 | 4.0 | 9.0 | 0.00 | 0.00 | 0.00 | 81 | 1014.3 |
| 20260508112708 | 62 | 20 | 1.0 | 9.0 | 0.00 | 0.00 | 0.00 | 81 | 1014.5 |
| 20260508112206 | 62 | 12 | 5.0 | 9.0 | 0.00 | 0.00 | 0.00 | 81 | 1014.5 |
| 20260508111639 | 62 | 343 | 6.0 | 11.0 | 0.00 | 0.00 | 0.00 | 81 | 1014.5 |
| 20260508111143 | 62 | 355 | 5.0 | 11.0 | 0.00 | 0.00 | 0.00 | 80 | 1014.4 |
| 20260508110708 | 62 | 11 | 5.0 | 8.0 | 0.00 | 0.00 | 0.00 | 80 | 1014.4 |
| 20260508110222 | 62 | 29 | 4.0 | 8.0 | 0.00 | 0.00 | 0.00 | 80 | 1014.6 |
| 20260508105635 | 62 | 336 | 3.0 | 6.0 | 0.00 | 0.00 | 0.00 | 80 | 1014.7 |
| 20260508105159 | 62 | 336 | 3.0 | 6.0 | 0.00 | 0.00 | 0.00 | 80 | 1015.0 |
| 20260508104655 | 62 | 336 | 1.0 | 7.0 | 0.00 | 0.00 | 0.00 | 81 | 1014.9 |
| 20260508104221 | 62 | 336 | 2.0 | 8.0 | 0.00 | 0.00 | 0.00 | 81 | 1014.8 |
| 20260508103629 | 62 | 314 | 4.0 | 7.0 | 0.00 | 0.00 | 0.00 | 81 | 1014.7 |
| 20260508103145 | 62 | 360 | 3.0 | 7.0 | 0.00 | 0.00 | 0.00 | 81 | 1014.4 |
| 20260508102134 | 62 | 327 | 4.0 | 8.0 | 0.00 | 0.00 | 0.00 | 81 | 1014.4 |
| 20260508101647 | 61 | 9 | 1.0 | 8.0 | 0.00 | 0.00 | 0.00 | 81 | 1014.2 |
| 20260508101156 | 61 | 335 | 2.0 | 8.0 | 0.00 | 0.00 | 0.00 | 81 | 1014.3 |
| 20260508100649 | 61 | 321 | 3.0 | 8.0 | 0.00 | 0.00 | 0.00 | 81 | 1014.2 |
| 20260508100128 | 61 | 325 | 3.0 | 8.0 | 0.00 | 0.00 | 0.00 | 82 | 1014.1 |
| 20260508095624 | 61 | 325 | 4.0 | 8.0 | 0.00 | 0.00 | 0.00 | 82 | 1014.2 |
| 20260508095132 | 61 | 5 | 5.0 | 8.0 | 0.00 | 0.00 | 0.00 | 82 | 1013.8 |
| 20260508094644 | 61 | 22 | 4.0 | 9.0 | 0.00 | 0.00 | 0.00 | 83 | 1013.9 |
| 20260508094158 | 61 | 355 | 4.0 | 9.0 | 0.00 | 0.00 | 0.00 | 83 | 1014.2 |
| 20260508093718 | 61 | 338 | 4.0 | 8.0 | 0.00 | 0.00 | 0.00 | 83 | 1014.0 |
| 20260508093129 | 61 | 19 | 3.0 | 6.0 | 0.00 | 0.00 | 0.00 | 84 | 1013.7 |
| 20260508092656 | 61 | 53 | 3.0 | 6.0 | 0.00 | 0.00 | 0.00 | 84 | 1013.6 |
| 20260508092212 | 61 | 28 | 1.0 | 4.0 | 0.00 | 0.00 | 0.00 | 84 | 1013.9 |
| 20260508091711 | 61 | 28 | 2.0 | 5.0 | 0.00 | 0.00 | 0.00 | 84 | 1014.3 |
| 20260508091213 | 61 | 59 | 1.0 | 7.0 | 0.00 | 0.00 | 0.00 | 84 | 1014.4 |
| 20260508090652 | 61 | 328 | 1.0 | 9.0 | 0.00 | 0.00 | 0.00 | 85 | 1014.4 |
| 20260508085721 | 61 | 355 | 3.0 | 7.0 | 0.00 | 0.00 | 0.00 | 84 | 1014.1 |
| 20260508085217 | 61 | 312 | 2.0 | 8.0 | 0.00 | 0.00 | 0.00 | 85 | 1014.4 |
| 20260508084708 | 61 | 328 | 4.0 | 7.0 | 0.00 | 0.00 | 0.00 | 85 | 1014.8 |
| 20260508084217 | 61 | 326 | 1.0 | 6.0 | 0.00 | 0.00 | 0.00 | 84 | 1014.3 |
| 20260508083713 | 61 | 326 | 1.0 | 7.0 | 0.00 | 0.00 | 0.00 | 84 | 1014.6 |
| 20260508083227 | 61 | 312 | 3.0 | 6.0 | 0.00 | 0.00 | 0.00 | 84 | 1014.6 |
| 20260508082719 | 61 | 5 | 2.0 | 5.0 | 0.00 | 0.00 | 0.00 | 84 | 1014.2 |
| 20260508082203 | 61 | 348 | 1.0 | 5.0 | 0.00 | 0.00 | 0.00 | 83 | 1014.6 |
| 20260508081636 | 62 | 348 | 2.0 | 5.0 | 0.00 | 0.00 | 0.00 | 83 | 1014.7 |
| 20260508081131 | 62 | 348 | 2.0 | 4.0 | 0.00 | 0.00 | 0.00 | 82 | 1014.7 |
| 20260508080624 | 62 | 348 | 1.0 | 4.0 | 0.00 | 0.00 | 0.00 | 81 | 1014.2 |
| 20260508080133 | 62 | 348 | 2.0 | 3.0 | 0.00 | 0.00 | 0.00 | 79 | 1014.4 |
| 20260508075646 | 63 | 348 | 1.0 | 2.0 | 0.00 | 0.00 | 0.00 | 77 | 1014.8 |
| 20260508075151 | 63 | 348 | 0.0 | 4.0 | 0.00 | 0.00 | 0.00 | 78 | 1014.9 |
| 20260508074707 | 63 | 348 | 1.0 | 3.0 | 0.00 | 0.00 | 0.00 | 76 | 1015.1 |
| 20260508074127 | 63 | 348 | 0.0 | 1.0 | 0.00 | 0.00 | 0.00 | 75 | 1014.8 |
| 20260508073643 | 63 | 348 | 0.0 | 5.0 | 0.00 | 0.00 | 0.00 | 75 | 1015.0 |
| 20260508073159 | 63 | 348 | 2.0 | 5.0 | 0.00 | 0.00 | 0.00 | 75 | 1015.1 |
| 20260508072727 | 63 | 348 | 0.0 | 5.0 | 0.00 | 0.00 | 0.00 | 75 | 1015.1 |
| 20260508072217 | 63 | 348 | 2.0 | 5.0 | 0.00 | 0.00 | 0.00 | 75 | 1015.2 |
| 20260508071720 | 63 | 348 | 1.0 | 5.0 | 0.00 | 0.00 | 0.00 | 75 | 1015.3 |
| 20260508071238 | 63 | 348 | 3.0 | 5.0 | 0.00 | 0.00 | 0.00 | 75 | 1015.2 |
| 20260508070632 | 63 | 348 | 1.0 | 5.0 | 0.00 | 0.00 | 0.00 | 75 | 1015.2 |
| 20260508070136 | 63 | 347 | 0.0 | 4.0 | 0.00 | 0.00 | 0.00 | 75 | 1015.3 |
| 20260508065643 | 63 | 347 | 0.0 | 4.0 | 0.00 | 0.00 | 0.00 | 74 | 1015.3 |
| 20260508065140 | 63 | 347 | 2.0 | 6.0 | 0.00 | 0.00 | 0.00 | 74 | 1015.4 |
| 20260508064648 | 63 | 347 | 2.0 | 7.0 | 0.00 | 0.00 | 0.00 | 74 | 1015.4 |
| 20260508064135 | 63 | 323 | 4.0 | 7.0 | 0.00 | 0.00 | 0.00 | 74 | 1015.3 |
| 20260508063638 | 63 | 321 | 2.0 | 6.0 | 0.00 | 0.00 | 0.00 | 74 | 1015.2 |
| 20260508063141 | 63 | 59 | 2.0 | 6.0 | 0.00 | 0.00 | 0.00 | 74 | 1014.7 |
| 20260508062628 | 63 | 45 | 1.0 | 8.0 | 0.00 | 0.00 | 0.00 | 74 | 1014.3 |
| 20260508062156 | 63 | 36 | 4.0 | 8.0 | 0.00 | 0.00 | 0.00 | 74 | 1014.2 |
| 20260508061642 | 63 | 61 | 4.0 | 8.0 | 0.00 | 0.00 | 0.00 | 74 | 1014.5 |
| 20260508061149 | 63 | 13 | 2.0 | 3.0 | 0.00 | 0.00 | 0.00 | 74 | 1014.8 |
| 20260508060628 | 63 | 5 | 0.0 | 4.0 | 0.00 | 0.00 | 0.00 | 74 | 1015.2 |
| 20260508060136 | 63 | 5 | 0.0 | 4.0 | 0.00 | 0.00 | 0.00 | 74 | 1015.5 |
| 20260508055644 | 63 | 5 | 1.0 | 4.0 | 0.00 | 0.00 | 0.00 | 74 | 1015.4 |
| 20260508055142 | 63 | 5 | 2.0 | 4.0 | 0.00 | 0.00 | 0.00 | 74 | 1015.4 |
| 20260508054629 | 63 | 9 | 2.0 | 5.0 | 0.00 | 0.00 | 0.00 | 74 | 1015.8 |
| 20260508054135 | 63 | 5 | 2.0 | 5.0 | 0.00 | 0.00 | 0.00 | 74 | 1015.7 |
| 20260508053634 | 63 | 5 | 2.0 | 5.0 | 0.00 | 0.00 | 0.00 | 74 | 1015.5 |
| 20260508053141 | 63 | 333 | 0.0 | 7.0 | 0.00 | 0.00 | 0.00 | 74 | 1015.7 |
| 20260508052734 | 63 | 355 | 4.0 | 9.0 | 0.00 | 0.00 | 0.00 | 74 | 1016.0 |
| 20260508052151 | 63 | 10 | 3.0 | 8.0 | 0.00 | 0.00 | 0.00 | 74 | 1015.4 |
| 20260508051639 | 63 | 360 | 4.0 | 7.0 | 0.00 | 0.00 | 0.00 | 74 | 1015.4 |
| 20260508051137 | 63 | 5 | 3.0 | 7.0 | 0.00 | 0.00 | 0.00 | 74 | 1015.9 |
| 20260508050625 | 63 | 10 | 4.0 | 8.0 | 0.00 | 0.00 | 0.00 | 75 | 1015.9 |
| 20260508050153 | 63 | 11 | 2.0 | 12.0 | 0.00 | 0.00 | 0.00 | 75 | 1015.8 |
| 20260508045658 | 63 | 328 | 4.0 | 12.0 | 0.00 | 0.00 | 0.00 | 75 | 1016.5 |
| 20260508044636 | 63 | 330 | 5.0 | 11.0 | 0.00 | 0.00 | 0.00 | 76 | 1015.8 |
| 20260508044155 | 63 | 315 | 8.0 | 11.0 | 0.00 | 0.00 | 0.00 | 75 | 1015.9 |
| 20260508043220 | 63 | 36 | 0.0 | 2.0 | 0.00 | 0.00 | 0.00 | 75 | 1014.8 |
| 20260508042721 | 63 | 36 | 0.0 | 5.0 | 0.00 | 0.00 | 0.00 | 75 | 1014.4 |
| 20260508042154 | 63 | 36 | 2.0 | 5.0 | 0.00 | 0.00 | 0.00 | 75 | 1014.2 |
| 20260508041649 | 63 | 38 | 1.0 | 6.0 | 0.00 | 0.00 | 0.00 | 74 | 1014.3 |
| 20260508040725 | 63 | 64 | 1.0 | 5.0 | 0.00 | 0.00 | 0.00 | 74 | 1014.4 |
| 20260508040202 | 63 | 63 | 2.0 | 5.0 | 0.00 | 0.00 | 0.00 | 74 | 1014.6 |
| 20260508035700 | 63 | 61 | 2.0 | 6.0 | 0.00 | 0.00 | 0.00 | 74 | 1014.6 |
| 20260508035159 | 63 | 61 | 4.0 | 6.0 | 0.00 | 0.00 | 0.00 | 74 | 1015.0 |
| 20260508034656 | 64 | 39 | 2.0 | 5.0 | 0.00 | 0.00 | 0.00 | 74 | 1015.1 |
| 20260508034147 | 64 | 25 | 2.0 | 3.0 | 0.00 | 0.00 | 0.00 | 73 | 1015.4 |
| 20260508033650 | 64 | 25 | 1.0 | 4.0 | 0.00 | 0.00 | 0.00 | 73 | 1015.5 |
| 20260508033154 | 64 | 25 | 1.0 | 5.0 | 0.00 | 0.00 | 0.00 | 73 | 1015.7 |
| 20260508032712 | 64 | 25 | 2.0 | 5.0 | 0.00 | 0.00 | 0.00 | 72 | 1015.6 |
| 20260508032139 | 64 | 25 | 3.0 | 5.0 | 0.00 | 0.00 | 0.00 | 73 | 1015.7 |
| 20260508031638 | 64 | 15 | 2.0 | 5.0 | 0.00 | 0.00 | 0.00 | 73 | 1015.9 |
| 20260508031147 | 64 | 15 | 2.0 | 6.0 | 0.00 | 0.00 | 0.00 | 73 | 1016.0 |
| 20260508030713 | 64 | 5 | 3.0 | 7.0 | 0.00 | 0.00 | 0.00 | 72 | 1016.2 |
| 20260508030125 | 64 | 348 | 4.0 | 7.0 | 0.00 | 0.00 | 0.00 | 73 | 1016.3 |
| 20260508025643 | 64 | 355 | 5.0 | 7.0 | 0.00 | 0.00 | 0.00 | 73 | 1016.1 |
| 20260508024740 | 64 | 348 | 3.0 | 6.0 | 0.00 | 0.00 | 0.00 | 73 | 1015.9 |
| 20260508024126 | 64 | 340 | 2.0 | 6.0 | 0.00 | 0.00 | 0.00 | 73 | 1016.1 |
| 20260508023647 | 64 | 297 | 3.0 | 5.0 | 0.00 | 0.00 | 0.00 | 72 | 1016.1 |
| 20260508023150 | 64 | 295 | 4.0 | 5.0 | 0.00 | 0.00 | 0.00 | 72 | 1016.1 |
| 20260508022707 | 64 | 263 | 3.0 | 5.0 | 0.00 | 0.00 | 0.00 | 71 | 1016.1 |
| 20260508022229 | 64 | 145 | 0.0 | 2.0 | 0.00 | 0.00 | 0.00 | 71 | 1015.6 |
| 20260508021722 | 64 | 140 | 0.0 | 4.0 | 0.00 | 0.00 | 0.00 | 70 | 1015.3 |
| 20260508021239 | 64 | 140 | 0.0 | 6.0 | 0.00 | 0.00 | 0.00 | 70 | 1014.8 |
| 20260508020629 | 65 | 137 | 5.0 | 6.0 | 0.00 | 0.00 | 0.00 | 69 | 1014.7 |
| 20260508020147 | 65 | 46 | 0.0 | 4.0 | 0.00 | 0.00 | 0.00 | 69 | 1014.7 |
| 20260508015647 | 65 | 46 | 1.0 | 4.0 | 0.00 | 0.00 | 0.00 | 68 | 1014.7 |
| 20260508015150 | 65 | 46 | 0.0 | 6.0 | 0.00 | 0.00 | 0.00 | 68 | 1014.7 |
| 20260508014706 | 65 | 46 | 1.0 | 8.0 | 0.00 | 0.00 | 0.00 | 68 | 1014.8 |
| 20260508014214 | 65 | 96 | 5.0 | 10.0 | 0.00 | 0.00 | 0.00 | 67 | 1013.9 |
| 20260508013720 | 65 | 129 | 4.0 | 9.0 | 0.00 | 0.00 | 0.00 | 67 | 1014.0 |
| 20260508013127 | 65 | 355 | 1.0 | 9.0 | 0.00 | 0.00 | 0.00 | 67 | 1014.2 |
| 20260508012640 | 66 | 15 | 3.0 | 8.0 | 0.00 | 0.00 | 0.00 | 67 | 1014.1 |
| 20260508012206 | 66 | 5 | 1.0 | 6.0 | 0.00 | 0.00 | 0.00 | 67 | 1014.3 |
| 20260508011702 | 66 | 31 | 3.0 | 6.0 | 0.00 | 0.00 | 0.00 | 66 | 1014.3 |
| 20260508011158 | 66 | 336 | 1.0 | 8.0 | 0.00 | 0.00 | 0.00 | 66 | 1014.5 |
| 20260508010721 | 66 | 21 | 5.0 | 12.0 | 0.00 | 0.00 | 0.00 | 65 | 1014.3 |
| 20260508010208 | 66 | 28 | 4.0 | 13.0 | 0.00 | 0.00 | 0.00 | 65 | 1014.3 |
| 20260508005703 | 66 | 355 | 7.0 | 11.0 | 0.00 | 0.00 | 0.00 | 64 | 1014.2 |
| 20260508005221 | 66 | 55 | 4.0 | 18.0 | 0.00 | 0.00 | 0.00 | 64 | 1013.1 |
| 20260508004717 | 66 | 80 | 11.0 | 22.0 | 0.00 | 0.00 | 0.00 | 63 | 1012.4 |
| 20260508004208 | 66 | 80 | 13.0 | 22.0 | 0.00 | 0.00 | 0.00 | 63 | 1011.8 |
| 20260508003645 | 67 | 77 | 10.0 | 16.0 | 0.00 | 0.00 | 0.00 | 63 | 1012.1 |
| 20260508002704 | 67 | 67 | 8.0 | 14.0 | 0.00 | 0.00 | 0.00 | 62 | 1013.2 |
| 20260508002202 | 67 | 53 | 7.0 | 12.0 | 0.00 | 0.00 | 0.00 | 62 | 1013.7 |
| 20260508001711 | 67 | 112 | 4.0 | 10.0 | 0.00 | 0.00 | 0.00 | 62 | 1013.9 |
| 20260508001136 | 67 | 78 | 7.0 | 10.0 | 0.00 | 0.00 | 0.00 | 62 | 1014.2 |
| 20260508000651 | 68 | 46 | 6.0 | 9.0 | 0.00 | 0.00 | 0.00 | 62 | 1014.6 |
| 20260508000141 | 68 | 59 | 1.0 | 11.0 | 0.00 | 0.00 | 0.00 | 62 | 1014.8 |
| 20260507235705 | 68 | 33 | 6.0 | 11.0 | 0.00 | 0.00 | 0.00 | 62 | 1014.6 |
| 20260507235219 | 68 | 91 | 3.0 | 9.0 | 0.00 | 0.00 | 0.00 | 62 | 1014.7 |
| 20260507234658 | 68 | 11 | 1.0 | 5.0 | 0.00 | 0.00 | 0.00 | 62 | 1015.4 |
| 20260507233653 | 68 | 63 | 4.0 | 10.0 | 0.00 | 0.00 | 0.00 | 61 | 1015.1 |
| 20260507233211 | 69 | 76 | 7.0 | 12.0 | 0.00 | 0.00 | 0.00 | 59 | 1015.4 |
| 20260507232659 | 69 | 49 | 6.0 | 12.0 | 0.00 | 0.00 | 0.00 | 59 | 1015.6 |
| 20260507232210 | 69 | 16 | 1.0 | 11.0 | 0.00 | 0.00 | 0.00 | 63 | 1015.5 |
| 20260507231723 | 69 | 28 | 5.0 | 12.0 | 0.00 | 0.00 | 0.00 | 62 | 1015.7 |
| 20260507231129 | 69 | 52 | 2.0 | 12.0 | 0.00 | 0.00 | 0.00 | 62 | 1015.8 |
| 20260507230639 | 69 | 360 | 7.0 | 11.0 | 0.00 | 0.00 | 0.00 | 60 | 1015.8 |
| 20260507230154 | 69 | 13 | 4.0 | 11.0 | 0.00 | 0.00 | 0.00 | 62 | 1015.8 |
| 20260507225143 | 70 | 32 | 8.0 | 15.0 | 0.00 | 0.00 | 0.00 | 58 | 1015.8 |
| 20260507224638 | 70 | 39 | 6.0 | 12.0 | 0.00 | 0.00 | 0.00 | 59 | 1015.8 |
| 20260507224146 | 70 | 32 | 6.0 | 12.0 | 0.00 | 0.00 | 0.00 | 60 | 1015.9 |
| 20260507223135 | 69 | 331 | 4.0 | 15.0 | 0.00 | 0.00 | 0.00 | 61 | 1016.2 |
| 20260507222647 | 70 | 49 | 7.0 | 15.0 | 0.00 | 0.00 | 0.00 | 60 | 1015.9 |
| 20260507221637 | 69 | 17 | 4.0 | 10.0 | 0.00 | 0.00 | 0.00 | 63 | 1015.8 |
| 20260507221159 | 68 | 36 | 5.0 | 9.0 | 0.00 | 0.00 | 0.00 | 63 | 1015.6 |
| 20260507220723 | 68 | 51 | 6.0 | 9.0 | 0.00 | 0.00 | 0.00 | 63 | 1015.8 |
| 20260507220223 | 68 | 63 | 6.0 | 11.0 | 0.00 | 0.00 | 0.00 | 63 | 1016.1 |
| 20260507215726 | 68 | 40 | 5.0 | 12.0 | 0.00 | 0.00 | 0.00 | 62 | 1016.4 |
| 20260507215219 | 68 | 41 | 6.0 | 12.0 | 0.00 | 0.00 | 0.00 | 62 | 1016.5 |
| 20260507214628 | 68 | 5 | 8.0 | 15.0 | 0.00 | 0.00 | 0.00 | 60 | 1016.3 |
| 20260507214154 | 68 | 13 | 7.0 | 15.0 | 0.00 | 0.00 | 0.00 | 62 | 1016.1 |
| 20260507213652 | 68 | 24 | 9.0 | 14.0 | 0.00 | 0.00 | 0.00 | 61 | 1016.1 |
| 20260507213206 | 69 | 13 | 8.0 | 16.0 | 0.00 | 0.00 | 0.00 | 61 | 1016.2 |
| 20260507212711 | 68 | 5 | 10.0 | 16.0 | 0.00 | 0.00 | 0.00 | 62 | 1016.6 |
| 20260507212124 | 68 | 26 | 8.0 | 15.0 | 0.00 | 0.00 | 0.00 | 63 | 1016.7 |
| 20260507211723 | 68 | 313 | 7.0 | 13.0 | 0.00 | 0.00 | 0.00 | 64 | 1016.8 |
| 20260507211131 | 68 | 17 | 6.0 | 18.0 | 0.00 | 0.00 | 0.00 | 63 | 1016.9 |
| 20260507210656 | 68 | 5 | 2.0 | 18.0 | 0.00 | 0.00 | 0.00 | 64 | 1016.7 |
| 20260507205720 | 68 | 24 | 7.0 | 20.0 | 0.00 | 0.00 | 0.00 | 65 | 1016.0 |
| 20260507205213 | 68 | 55 | 7.0 | 20.0 | 0.00 | 0.00 | 0.00 | 64 | 1015.9 |
| 20260507204716 | 69 | 5 | 4.0 | 18.0 | 0.00 | 0.00 | 0.00 | 65 | 1016.3 |
| 20260507204214 | 68 | 340 | 10.0 | 18.0 | 0.00 | 0.00 | 0.00 | 64 | 1016.3 |
| 20260507203221 | 69 | 22 | 4.0 | 16.0 | 0.00 | 0.00 | 0.00 | 65 | 1016.5 |
| 20260507202716 | 69 | 27 | 7.0 | 20.0 | 0.00 | 0.00 | 0.00 | 65 | 1016.3 |
| 20260507202210 | 69 | 32 | 9.0 | 20.0 | 0.00 | 0.00 | 0.00 | 66 | 1015.6 |
| 20260507201646 | 68 | 42 | 3.0 | 11.0 | 0.00 | 0.00 | 0.00 | 67 | 1016.1 |
| 20260507201139 | 68 | 20 | 6.0 | 15.0 | 0.00 | 0.00 | 0.00 | 68 | 1016.5 |
| 20260507200658 | 67 | 42 | 10.0 | 15.0 | 0.00 | 0.00 | 0.00 | 67 | 1016.3 |
| 20260507200209 | 67 | 51 | 8.0 | 16.0 | 0.00 | 0.00 | 0.00 | 70 | 1016.3 |
| 20260507195711 | 67 | 12 | 8.0 | 16.0 | 0.00 | 0.00 | 0.00 | 71 | 1016.2 |
| 20260507195124 | 67 | 38 | 4.0 | 18.0 | 0.00 | 0.00 | 0.00 | 72 | 1016.6 |
| 20260507194643 | 67 | 21 | 8.0 | 18.0 | 0.00 | 0.00 | 0.00 | 71 | 1016.5 |
| 20260507194158 | 67 | 32 | 5.0 | 14.0 | 0.00 | 0.00 | 0.00 | 74 | 1017.1 |
| 20260507193721 | 67 | 346 | 7.0 | 14.0 | 0.00 | 0.00 | 0.00 | 76 | 1016.8 |
| 20260507193219 | 65 | 360 | 7.0 | 13.0 | 0.00 | 0.00 | 0.00 | 77 | 1016.9 |
| 20260507192708 | 65 | 328 | 6.0 | 13.0 | 0.00 | 0.00 | 0.00 | 80 | 1016.7 |
| 20260507192203 | 65 | 46 | 6.0 | 13.0 | 0.00 | 0.00 | 0.00 | 80 | 1016.7 |
| 20260507191728 | 64 | 9 | 8.0 | 13.0 | 0.00 | 0.00 | 0.00 | 82 | 1016.5 |
| 20260507191222 | 64 | 19 | 5.0 | 14.0 | 0.00 | 0.00 | 0.00 | 83 | 1016.5 |
| 20260507190628 | 63 | 36 | 9.0 | 14.0 | 0.00 | 0.00 | 0.00 | 84 | 1016.5 |
| 20260507190149 | 63 | 13 | 5.0 | 13.0 | 0.00 | 0.00 | 0.00 | 84 | 1016.6 |
| 20260507185708 | 63 | 71 | 4.0 | 11.0 | 0.00 | 0.00 | 0.00 | 86 | 1016.7 |
| 20260507185128 | 62 | 28 | 5.0 | 10.0 | 0.00 | 0.00 | 0.00 | 86 | 1016.8 |
| 20260507184644 | 62 | 53 | 4.0 | 8.0 | 0.00 | 0.00 | 0.00 | 86 | 1016.9 |
| 20260507184152 | 62 | 98 | 5.0 | 11.0 | 0.00 | 0.00 | 0.00 | 85 | 1017.3 |
| 20260507183719 | 62 | 70 | 3.0 | 8.0 | 0.00 | 0.00 | 0.00 | 86 | 1017.5 |
| 20260507182636 | 62 | 13 | 2.0 | 11.0 | 0.00 | 0.00 | 0.00 | 84 | 1017.5 |
| 20260507182202 | 62 | 355 | 6.0 | 14.0 | 0.00 | 0.00 | 0.00 | 82 | 1017.5 |
| 20260507181718 | 63 | 26 | 9.0 | 14.0 | 0.00 | 0.00 | 0.00 | 80 | 1017.6 |
| 20260507181218 | 63 | 348 | 7.0 | 13.0 | 0.00 | 0.00 | 0.00 | 79 | 1018.5 |
| 20260507180634 | 63 | 33 | 7.0 | 13.0 | 0.00 | 0.00 | 0.00 | 78 | 1018.4 |
| 20260507180145 | 63 | 26 | 6.0 | 12.0 | 0.00 | 0.00 | 0.00 | 78 | 1018.2 |
| 20260507175658 | 63 | 355 | 6.0 | 14.0 | 0.00 | 0.00 | 0.00 | 78 | 1018.0 |
| 20260507175151 | 64 | 21 | 7.0 | 14.0 | 0.00 | 0.00 | 0.00 | 78 | 1018.0 |
| 20260507174139 | 64 | 5 | 8.0 | 13.0 | 0.00 | 0.00 | 0.00 | 78 | 1018.0 |
| 20260507173652 | 63 | 24 | 4.0 | 12.0 | 0.00 | 0.00 | 0.00 | 79 | 1017.9 |
| 20260507172640 | 63 | 44 | 8.0 | 13.0 | 0.00 | 0.00 | 0.00 | 79 | 1017.7 |
| 20260507172156 | 63 | 5 | 4.0 | 13.0 | 0.00 | 0.00 | 0.00 | 81 | 1017.8 |
| 20260507171720 | 62 | 351 | 6.0 | 15.0 | 0.00 | 0.00 | 0.00 | 81 | 1017.7 |
| 20260507171132 | 62 | 15 | 8.0 | 18.0 | 0.00 | 0.00 | 0.00 | 82 | 1017.7 |
| 20260507170648 | 61 | 360 | 4.0 | 13.0 | 0.00 | 0.00 | 0.00 | 83 | 1017.7 |
| 20260507165637 | 61 | 13 | 8.0 | 19.0 | 0.00 | 0.00 | 0.00 | 84 | 1017.9 |
| 20260507165155 | 60 | 17 | 6.0 | 12.0 | 0.00 | 0.00 | 0.00 | 84 | 1018.0 |
| 20260507164720 | 60 | 342 | 5.0 | 15.0 | 0.00 | 0.00 | 0.00 | 85 | 1018.1 |
| 20260507164130 | 60 | 16 | 9.0 | 15.0 | 0.00 | 0.00 | 0.00 | 84 | 1018.5 |
| 20260507163712 | 60 | 18 | 9.0 | 18.0 | 0.00 | 0.00 | 0.00 | 84 | 1018.5 |
| 20260507163211 | 60 | 350 | 8.0 | 19.0 | 0.00 | 0.00 | 0.00 | 85 | 1018.6 |
| 20260507162718 | 60 | 5 | 9.0 | 15.0 | 0.00 | 0.00 | 0.00 | 85 | 1018.0 |
| 20260507161642 | 59 | 355 | 7.0 | 18.0 | 0.00 | 0.00 | 0.00 | 86 | 1018.2 |
| 20260507161206 | 59 | 334 | 5.0 | 18.0 | 0.00 | 0.00 | 0.00 | 86 | 1018.1 |
| 20260507160659 | 59 | 38 | 7.0 | 18.0 | 0.00 | 0.00 | 0.00 | 86 | 1018.0 |
| 20260507160154 | 59 | 53 | 9.0 | 15.0 | 0.00 | 0.00 | 0.00 | 87 | 1018.0 |
| 20260507155645 | 59 | 22 | 4.0 | 21.0 | 0.00 | 0.00 | 0.00 | 87 | 1018.0 |
| 20260507155155 | 59 | 19 | 8.0 | 21.0 | 0.00 | 0.00 | 0.00 | 87 | 1018.1 |
| 20260507154643 | 59 | 327 | 6.0 | 15.0 | 0.00 | 0.00 | 0.00 | 87 | 1018.1 |
| 20260507154156 | 58 | 324 | 10.0 | 18.0 | 0.00 | 0.00 | 0.00 | 87 | 1018.0 |
| 20260507153710 | 58 | 5 | 5.0 | 21.0 | 0.00 | 0.00 | 0.00 | 87 | 1018.3 |
| 20260507153151 | 58 | 317 | 8.0 | 21.0 | 0.00 | 0.00 | 0.00 | 87 | 1018.0 |
| 20260507152647 | 58 | 304 | 8.0 | 18.0 | 0.00 | 0.00 | 0.00 | 87 | 1017.9 |
| 20260507152153 | 58 | 26 | 5.0 | 22.0 | 0.00 | 0.00 | 0.00 | 88 | 1017.9 |
| 20260507151709 | 58 | 355 | 8.0 | 22.0 | 0.00 | 0.00 | 0.00 | 88 | 1017.9 |
| 20260507151334 | 58 | 42 | 8.0 | 19.0 | 0.00 | 0.00 | 0.00 | 88 | 1018.0 |
| 20260507150626 | 58 | 22 | 9.0 | 21.0 | 0.00 | 0.00 | 0.00 | 88 | 1018.0 |
| 20260507150142 | 58 | 5 | 9.0 | 21.0 | 0.00 | 0.00 | 0.00 | 88 | 1018.0 |
| 20260507145705 | 58 | 355 | 10.0 | 20.0 | 0.00 | 0.00 | 0.00 | 89 | 1017.9 |
| 20260507145219 | 58 | 26 | 9.0 | 22.0 | 0.00 | 0.00 | 0.00 | 90 | 1018.0 |
| 20260507144628 | 58 | 346 | 10.0 | 21.0 | 0.00 | 0.00 | 0.00 | 90 | 1017.8 |
| 20260507144152 | 58 | 349 | 10.0 | 19.0 | 0.00 | 0.00 | 0.00 | 91 | 1017.6 |
| 20260507143237 | 58 | 14 | 5.0 | 18.0 | 0.00 | 0.00 | 0.00 | 92 | 1017.6 |
| 20260507142743 | 58 | 34 | 6.0 | 18.0 | 0.00 | 0.00 | 0.00 | 92 | 1018.0 |
| 20260507142136 | 58 | 360 | 5.0 | 16.0 | 0.00 | 0.00 | 0.00 | 92 | 1018.1 |
| 20260507141656 | 58 | 360 | 8.0 | 19.0 | 0.00 | 0.00 | 0.00 | 91 | 1018.2 |
| 20260507140630 | 58 | 360 | 11.0 | 19.0 | 0.00 | 0.00 | 0.00 | 91 | 1017.8 |
| 20260507140141 | 58 | 46 | 7.0 | 21.0 | 0.00 | 0.00 | 0.00 | 91 | 1017.8 |
| 20260507135704 | 58 | 5 | 8.0 | 15.0 | 0.00 | 0.00 | 0.00 | 91 | 1017.6 |